Weather in Gagarin

Uzbekistan     40°39′48″N   68°10′05″E
temp.,
°C
wind,
m/s
gust,
m/s
humid.,
%
clouds,
%
prec.,
mm/h
press.,
hPa
HPBL,
m
6 march, sat
sat623:00+7ne355255 0.0 1021140
02:00+7nne3457100 0.0 101887
05:00+6ne3452100 0.0 101667
08:00+7ne4746100 0.0 1014151
11:00+12nw2332100 0.0 1013354
14:00+13nnw4534100 0.0 1012664
17:00+12n4538100 0.0 1013692
20:00+9nnw5762100 0.1 1016390
7 march, sun
sun723:00+8n2470100 0.1 1018368
02:00+6ese3476100 0.5 1018281
05:00+7sse3581100 0.5 1020321
08:00+6wnw4785100 0.4 1021401
11:00+8nw236898 0.6 1022756
14:00+11sse115578 0.0 10201037
17:00+12se325366 0.0 10191107
20:00+10se23650 0.0 1019100
8 march, mon
mon823:00+8se23720 0.0 101978
02:00+7sse23760 0.0 101956
05:00+7se237917 0.0 101941
08:00+8ese1376100 0.0 1020134
11:00+13sse3452100 0.0 1020454
14:00+16ene1140100 0.0 10191103
17:00+16ene2239100 0.0 10191109
20:00+13ene3457100 0.0 102195
9 march, tue
tue923:00+11e3361100 0.0 102055
02:00+10e3363100 0.0 101951
05:00+10e2364100 0.0 101727
08:00+10e3462100 0.0 1016115
11:00+16se5939100 0.0 1014727
14:00+19ese71033100 0.0 1011706
17:00+19ese3633100 0.0 1009691
20:00+16sw4539100 0.0 101084
10 march, wed
wed1023:00+16ese71335100 0.0 1010321
02:00+14ese51049100 0.0 1008197
05:00+14sse71541100 0.0 1008335
08:00+13wsw4966100 0.8 1011294
11:00+13nw9115187 1.1 1015919
14:00+12wnw8106693 0.4 10171122
17:00+12nw575196 0.7 10191352
20:00+9n485881 0.0 1022278